Location: Most
(50.5133°N, 13.6207°E)
Time: 19:21:49
(UTC+02:00)

ISS - Pass Details

Date: 17 May 2019
Orbit: 407 x 410 km, 51.6° (Epoch: 23 May)

Event Time Altitude Azimuth Distance (km) Brightness Sun altitude
Rises 23:42:20 0° 244° (WSW) 2,328 0.0 -17.9°
Reaches altitude 10° 23:44:25 10° 241° (WSW) 1,470 -1.1 -18.0°
Enters shadow 23:44:54 14° 240° (WSW) 1,274 -1.4 -18.0°
Exits shadow 23:48:20 50° 103° (ESE) 529 -3.5 -18.2°
Drops below altitude 10° 23:50:58 10° 77° (ENE) 1,477 -1.0 -18.3°
Sets 23:53:04 0° 75° (ENE) 2,341 0.0 -18.4°
